CW2857 Weather Reports


Display with metric or nautical units.
time (UTC)temp
F
wind
direction
speed
MPH
gust
MPH
rain 1hr
in
rain 24hr
in
rain mn
in
humidity
%
barometer
mb
20260902005016 76 246 9.0 23.0 0.00 0.00 0.00 15 1012.6
20260902004520 77 180 15.0 25.0 0.00 0.00 0.00 15 1012.6
20260902004018 77 198 12.0 28.0 0.00 0.00 0.00 14 1012.6
20260902003515 77 251 12.0 27.0 0.00 0.00 0.00 14 1012.7
20260902003016 77 225 13.0 27.0 0.00 0.00 0.00 14 1012.8
20260902002516 77 189 15.0 27.0 0.00 0.00 0.00 15 1012.6
20260902002015 77 213 13.0 22.0 0.00 0.00 0.00 15 1012.7
20260902001516 77 224 12.0 25.0 0.00 0.00 0.00 15 1012.7
20260902001015 77 254 12.0 22.0 0.00 0.00 0.00 14 1012.7
20260902000514 77 240 15.0 21.0 0.00 0.00 0.00 14 1012.7
20260902000014 78 237 11.0 24.0 0.00 0.00 0.00 14 1012.6
20260901235514 78 198 13.0 28.0 0.00 0.00 0.00 13 1012.7
20260901235013 78 188 14.0 28.0 0.00 0.00 0.00 13 1012.5
20260901234514 78 208 12.0 21.0 0.00 0.00 0.00 13 1012.6
20260901234013 79 198 10.0 20.0 0.00 0.00 0.00 12 1012.7
20260901233519 79 198 10.0 18.0 0.00 0.00 0.00 12 1012.7
20260901233013 79 190 10.0 18.0 0.00 0.00 0.00 12 1012.8
20260901232513 79 222 11.0 18.0 0.00 0.00 0.00 12 1012.8
20260901232013 79 244 11.0 18.0 0.00 0.00 0.00 12 1012.7
20260901231513 79 202 7.0 18.0 0.00 0.00 0.00 12 1012.7
20260901231012 79 229 10.0 23.0 0.00 0.00 0.00 12 1012.7
20260901230512 79 288 11.0 23.0 0.00 0.00 0.00 12 1012.6
20260901230012 79 273 11.0 20.0 0.00 0.00 0.00 12 1012.6
20260901225511 80 271 9.0 23.0 0.00 0.00 0.00 12 1012.6
20260901225011 80 209 9.0 23.0 0.00 0.00 0.00 12 1012.7
20260901224522 80 219 10.0 25.0 0.00 0.00 0.00 12 1012.5
20260901224013 80 236 9.0 25.0 0.00 0.00 0.00 12 1012.5
20260901223510 80 236 10.0 21.0 0.00 0.00 0.00 12 1012.3
20260901223011 81 263 9.0 21.0 0.00 0.00 0.00 11 1012.3
20260901222510 81 254 8.0 18.0 0.00 0.00 0.00 12 1012.3
20260901222010 82 277 11.0 19.0 0.00 0.00 0.00 12 1012.3
20260901221533 82 214 9.0 19.0 0.00 0.00 0.00 12 1012.2
20260901221011 82 219 9.0 17.0 0.00 0.00 0.00 12 1012.3
20260901220509 82 197 6.0 18.0 0.00 0.00 0.00 12 1012.3
20260901220010 83 196 11.0 18.0 0.00 0.00 0.00 11 1012.3
20260901215509 83 233 10.0 19.0 0.00 0.00 0.00 9 1012.3
20260901215008 83 279 6.0 19.0 0.00 0.00 0.00 10 1012.4
20260901214507 83 218 6.0 20.0 0.00 0.00 0.00 9 1012.4
20260901214011 83 233 8.0 17.0 0.00 0.00 0.00 9 1012.5
20260901213506 84 194 5.0 17.0 0.00 0.00 0.00 9 1012.5
20260901213012 83 173 4.0 13.0 0.00 0.00 0.00 9 1012.6
20260901212505 83 306 6.0 13.0 0.00 0.00 0.00 9 1012.7
20260901212005 84 161 3.0 8.0 0.00 0.00 0.00 10 1012.8
20260901211511 84 166 3.0 10.0 0.00 0.00 0.00 10 1012.9
20260901211004 84 120 5.0 12.0 0.00 0.00 0.00 10 1013.0
20260901210504 84 70 8.0 18.0 0.00 0.00 0.00 9 1013.0
20260901210003 83 148 8.0 18.0 0.00 0.00 0.00 10 1013.0
20260901205502 83 157 2.0 12.0 0.00 0.00 0.00 10 1013.0
20260901205003 83 182 4.0 12.0 0.00 0.00 0.00 10 1013.1
20260901204503 84 202 3.0 8.0 0.00 0.00 0.00 10 1013.2
20260901204003 83 44 0.0 8.0 0.00 0.00 0.00 11 1013.2
20260901203603 82 257 3.0 12.0 0.00 0.00 0.00 11 1013.3
20260901203102 82 156 7.0 15.0 0.00 0.00 0.00 11 1013.4
20260901202559 84 237 5.0 15.0 0.00 0.00 0.00 11 1013.5
20260901202100 84 84 4.0 11.0 0.00 0.00 0.00 11 1013.5
20260901201559 82 136 1.0 15.0 0.00 0.00 0.00 11 1013.6
20260901201056 82 150 9.0 15.0 0.00 0.00 0.00 11 1013.7
20260901200556 81 177 9.0 15.0 0.00 0.00 0.00 12 1013.7
20260901200116 81 150 0.0 10.0 0.00 0.00 0.00 12 1013.8
20260901195555 82 201 5.0 11.0 0.00 0.00 0.00 12 1013.9
20260901195056 82 191 2.0 11.0 0.00 0.00 0.00 12 1014.0
20260901194607 81 88 6.0 15.0 0.00 0.00 0.00 12 1014.0
20260901194056 80 162 9.0 15.0 0.00 0.00 0.00 12 1014.2
20260901193553 80 146 6.0 15.0 0.00 0.00 0.00 13 1014.2
20260901193054 80 132 8.0 15.0 0.00 0.00 0.00 13 1014.1
20260901192557 80 180 7.0 16.0 0.00 0.00 0.00 13 1014.1
20260901192051 79 181 6.0 17.0 0.00 0.00 0.00 13 1014.3
20260901191629 79 140 8.0 17.0 0.00 0.00 0.00 13 1014.2
20260901191054 78 216 5.0 17.0 0.00 0.00 0.00 13 1014.2
20260901190551 78 163 8.0 15.0 0.00 0.00 0.00 13 1014.3
20260901190059 79 194 9.0 17.0 0.00 0.00 0.00 13 1014.4
20260901185551 79 144 5.0 13.0 0.00 0.00 0.00 13 1014.3
20260901185050 79 186 6.0 13.0 0.00 0.00 0.00 13 1014.3
20260901184549 79 220 3.0 13.0 0.00 0.00 0.00 14 1014.3
20260901184050 79 108 7.0 16.0 0.00 0.00 0.00 14 1014.5
20260901183553 79 172 9.0 17.0 0.00 0.00 0.00 15 1014.3
20260901183054 79 211 7.0 12.0 0.00 0.00 0.00 15 1014.3
20260901182549 79 180 4.0 10.0 0.00 0.00 0.00 15 1014.4
20260901182049 80 271 1.0 14.0 0.00 0.00 0.00 14 1014.5
20260901181610 80 76 3.0 14.0 0.00 0.00 0.00 15 1014.5
20260901181053 80 142 3.0 10.0 0.00 0.00 0.00 15 1014.5
20260901180549 80 178 5.0 10.0 0.00 0.00 0.00 15 1014.6
20260901180048 80 84 2.0 6.0 0.00 0.00 0.00 15 1014.6
20260901175546 78 338 0.0 7.0 0.00 0.00 0.00 16 1014.7
20260901175049 76 65 3.0 12.0 0.00 0.00 0.00 16 1014.7
20260901174546 76 250 6.0 14.0 0.00 0.00 0.00 16 1014.7
20260901174049 77 273 7.0 12.0 0.00 0.00 0.00 16 1014.7
20260901173549 77 216 3.0 9.0 0.00 0.00 0.00 16 1014.8
20260901173045 78 350 3.0 11.0 0.00 0.00 0.00 16 1014.8
20260901172547 78 311 3.0 8.0 0.00 0.00 0.00 15 1014.7
20260901172044 77 291 1.0 8.0 0.00 0.00 0.00 16 1014.6
20260901171543 76 5 1.0 8.0 0.00 0.00 0.00 16 1014.7
20260901171041 75 355 3.0 10.0 0.00 0.00 0.00 16 1014.7
20260901170542 74 218 6.0 10.0 0.00 0.00 0.00 17 1014.8
20260901170051 73 230 2.0 11.0 0.00 0.00 0.00 17 1014.8
20260901165538 73 278 6.0 14.0 0.00 0.00 0.00 18 1014.8
20260901165037 73 266 5.0 14.0 0.00 0.00 0.00 18 1014.8
20260901164540 73 234 3.0 12.0 0.00 0.00 0.00 18 1014.8
20260901164036 72 275 7.0 15.0 0.00 0.00 0.00 17 1014.8
20260901163536 72 227 5.0 15.0 0.00 0.00 0.00 18 1014.8
20260901163043 72 240 8.0 13.0 0.00 0.00 0.00 18 1014.8
20260901162536 72 244 5.0 12.0 0.00 0.00 0.00 18 1014.8
20260901162035 71 209 5.0 13.0 0.00 0.00 0.00 18 1014.9
20260901161538 72 319 4.0 14.0 0.00 0.00 0.00 18 1015.0
20260901161035 71 296 7.0 13.0 0.00 0.00 0.00 18 1015.0
20260901160534 71 317 2.0 10.0 0.00 0.00 0.00 19 1015.0
20260901160041 71 240 3.0 10.0 0.00 0.00 0.00 19 1015.1
20260901155534 72 260 3.0 8.0 0.00 0.00 0.00 18 1015.1
20260901155033 71 327 0.0 7.0 0.00 0.00 0.00 19 1015.1
20260901154534 70 234 0.0 7.0 0.00 0.00 0.00 20 1015.0
20260901154032 70 227 0.0 7.0 0.00 0.00 0.00 20 1015.1
20260901153532 70 279 1.0 7.0 0.00 0.00 0.00 21 1015.1
20260901153032 69 192 0.0 2.0 0.00 0.00 0.00 21 1015.0
20260901152534 69 294 0.0 4.0 0.00 0.00 0.00 22 1015.0
20260901152031 69 225 0.0 9.0 0.00 0.00 0.00 23 1015.0
20260901151539 69 267 1.0 5.0 0.00 0.00 0.00 22 1015.1
20260901151031 69 243 0.0 7.0 0.00 0.00 0.00 22 1015.2
20260901150530 69 238 1.0 10.0 0.00 0.00 0.00 21 1015.1
20260901150038 69 279 0.0 10.0 0.00 0.00 0.00 22 1015.2
20260901145530 68 274 2.0 7.0 0.00 0.00 0.00 22 1015.2
20260901145030 68 263 1.0 12.0 0.00 0.00 0.00 22 1015.2
20260901144538 68 252 1.0 12.0 0.00 0.00 0.00 22 1015.1
20260901144028 68 249 3.0 14.0 0.00 0.00 0.00 23 1015.0
20260901143528 67 238 7.0 14.0 0.00 0.00 0.00 23 1015.0
20260901143028 67 245 7.0 16.0 0.00 0.00 0.00 25 1015.1
20260901142527 67 246 6.0 16.0 0.00 0.00 0.00 25 1015.1
20260901142027 66 258 3.0 10.0 0.00 0.00 0.00 27 1015.0
20260901141526 67 283 5.0 13.0 0.00 0.00 0.00 27 1015.0
20260901141026 66 269 6.0 14.0 0.00 0.00 0.00 26 1015.0
20260901140525 66 277 8.0 14.0 0.00 0.00 0.00 27 1014.9
20260901140029 66 266 4.0 12.0 0.00 0.00 0.00 27 1014.9
20260901135524 66 269 6.0 13.0 0.00 0.00 0.00 27 1014.8
20260901135026 65 269 7.0 12.0 0.00 0.00 0.00 28 1014.8
20260901134522 64 290 2.0 8.0 0.00 0.00 0.00 27 1014.7
20260901134026 64 274 1.0 8.0 0.00 0.00 0.00 29 1014.7
20260901133523 64 315 1.0 8.0 0.00 0.00 0.00 29 1014.6
20260901133022 64 290 0.0 3.0 0.00 0.00 0.00 29 1014.6
20260901132524 64 324 0.0 4.0 0.00 0.00 0.00 29 1014.7
20260901132024 64 320 0.0 6.0 0.00 0.00 0.00 29 1014.7
20260901131532 65 327 0.0 6.0 0.00 0.00 0.00 28 1014.7
20260901131021 65 267 0.0 4.0 0.00 0.00 0.00 28 1014.6
20260901130525 66 271 1.0 4.0 0.00 0.00 0.00 27 1014.5
20260901130018 66 261 0.0 5.0 0.00 0.00 0.00 28 1014.6
20260901125517 66 281 1.0 5.0 0.00 0.00 0.00 28 1014.6
20260901125018 65 273 0.0 4.0 0.00 0.00 0.00 28 1014.5
20260901124518 65 268 1.0 6.0 0.00 0.00 0.00 28 1014.5
20260901124016 65 271 2.0 7.0 0.00 0.00 0.00 28 1014.4
20260901123516 65 275 1.0 5.0 0.00 0.00 0.00 28 1014.4
20260901123017 66 277 0.0 3.0 0.00 0.00 0.00 28 1014.4
20260901122515 66 262 0.0 6.0 0.00 0.00 0.00 27 1014.3
20260901122016 66 269 0.0 7.0 0.00 0.00 0.00 28 1014.3
20260901121517 66 329 1.0 8.0 0.00 0.00 0.00 27 1014.2
20260901121013 66 281 3.0 8.0 0.00 0.00 0.00 27 1014.2
20260901120513 66 255 0.0 7.0 0.00 0.00 0.00 27 1014.2
20260901120018 67 290 0.0 7.0 0.00 0.00 0.00 28 1014.2
20260901115512 67 294 2.0 8.0 0.00 0.00 0.00 28 1014.3
20260901115011 67 292 0.0 10.0 0.00 0.00 0.00 27 1014.2
20260901114511 67 260 4.0 10.0 0.00 0.00 0.00 27 1014.2
20260901114111 67 269 1.0 12.0 0.00 0.00 0.00 28 1014.3
20260901113512 67 309 3.0 12.0 0.00 0.00 0.00 27 1014.2
20260901113009 67 300 3.0 11.0 0.00 0.00 0.00 27 1014.2
20260901112508 67 266 5.0 10.0 0.00 0.00 0.00 27 1014.1
20260901112007 66 259 2.0 7.0 0.00 0.00 0.00 27 1014.1
20260901111507 66 259 1.0 5.0 0.00 0.00 0.00 27 1013.9
20260901111006 66 252 0.0 3.0 0.00 0.00 0.00 28 1013.9
20260901110510 67 273 0.0 5.0 0.00 0.00 0.00 28 1013.8
20260901110010 67 269 0.0 6.0 0.00 0.00 0.00 29 1013.8
20260901105506 67 274 2.0 7.0 0.00 0.00 0.00 29 1013.8
20260901105005 67 284 2.0 10.0 0.00 0.00 0.00 28 1013.9
20260901104505 67 296 3.0 10.0 0.00 0.00 0.00 29 1013.8
20260901104005 67 271 2.0 9.0 0.00 0.00 0.00 29 1013.8
20260901103504 67 268 3.0 10.0 0.00 0.00 0.00 29 1013.9
20260901103003 67 289 4.0 10.0 0.00 0.00 0.00 29 1013.9
20260901102507 67 296 4.0 10.0 0.00 0.00 0.00 28 1013.9
20260901102002 67 262 2.0 8.0 0.00 0.00 0.00 27 1013.9
20260901101504 67 271 2.0 8.0 0.00 0.00 0.00 27 1013.8
20260901101003 68 350 1.0 7.0 0.00 0.00 0.00 29 1013.8
20260901100501 68 274 2.0 8.0 0.00 0.00 0.00 29 1013.9
20260901100001 68 294 2.0 9.0 0.00 0.00 0.00 29 1013.8
20260901095502 68 258 2.0 10.0 0.00 0.00 0.00 30 1014.0
20260901095100 68 315 5.0 10.0 0.00 0.00 0.00 30 1014.0
20260901094600 68 221 3.0 9.0 0.00 0.00 0.00 30 1013.9
20260901094101 68 280 3.0 10.0 0.00 0.00 0.00 30 1013.9
20260901093658 68 260 4.0 10.0 0.00 0.00 0.00 30 1014.0
20260901093107 68 275 6.0 11.0 0.00 0.00 0.00 29 1013.9
20260901092557 68 264 5.0 10.0 0.00 0.00 0.00 28 1014.0
20260901092056 68 261 4.0 9.0 0.00 0.00 0.00 28 1014.0
20260901091558 68 279 4.0 8.0 0.00 0.00 0.00 27 1013.9
20260901091055 68 268 3.0 9.0 0.00 0.00 0.00 26 1013.9
20260901090554 69 277 3.0 9.0 0.00 0.00 0.00 26 1013.9
20260901090053 69 263 2.0 10.0 0.00 0.00 0.00 26 1013.9
20260901085552 69 280 4.0 10.0 0.00 0.00 0.00 25 1013.8
20260901085052 69 269 5.0 8.0 0.00 0.00 0.00 25 1013.8
20260901084553 69 279 5.0 8.0 0.00 0.00 0.00 25 1013.9
20260901084051 69 270 3.0 7.0 0.00 0.00 0.00 25 1014.0
20260901083550 69 272 1.0 7.0 0.00 0.00 0.00 25 1014.0
20260901083050 69 273 2.0 7.0 0.00 0.00 0.00 25 1013.9
20260901082549 69 281 4.0 9.0 0.00 0.00 0.00 25 1013.9
20260901082052 69 261 2.0 9.0 0.00 0.00 0.00 25 1013.9
20260901081557 69 327 1.0 7.0 0.00 0.00 0.00 25 1013.9
20260901081051 69 292 2.0 7.0 0.00 0.00 0.00 25 1013.8
20260901080549 69 285 1.0 5.0 0.00 0.00 0.00 25 1013.8
20260901080140 69 290 1.0 4.0 0.00 0.00 0.00 25 1013.9
20260901075550 69 294 0.0 4.0 0.00 0.00 0.00 25 1013.9
20260901075046 70 340 1.0 7.0 0.00 0.00 0.00 25 1013.8
20260901074545 70 340 1.0 9.0 0.00 0.00 0.00 24 1013.8
20260901074045 71 312 3.0 9.0 0.00 0.00 0.00 25 1013.8
20260901073544 71 267 1.0 13.0 0.00 0.00 0.00 25 1013.7
20260901073044 71 306 7.0 14.0 0.00 0.00 0.00 25 1013.7
20260901072544 72 273 6.0 14.0 0.00 0.00 0.00 24 1013.8
20260901072047 71 273 6.0 13.0 0.00 0.00 0.00 24 1014.0
20260901071542 72 272 3.0 12.0 0.00 0.00 0.00 24 1013.8
20260901071041 72 254 6.0 12.0 0.00 0.00 0.00 24 1013.8
20260901070539 72 263 7.0 11.0 0.00 0.00 0.00 24 1013.8
20260901070038 72 290 5.0 14.0 0.00 0.00 0.00 24 1013.8
20260901065539 72 265 5.0 16.0 0.00 0.00 0.00 24 1013.7
20260901065037 72 265 9.0 18.0 0.00 0.00 0.00 23 1013.7
20260901064537 72 271 9.0 16.0 0.00 0.00 0.00 24 1013.7
20260901064037 73 294 7.0 14.0 0.00 0.00 0.00 23 1013.6
20260901063538 73 287 6.0 12.0 0.00 0.00 0.00 23 1013.7
20260901063052 73 284 7.0 13.0 0.00 0.00 0.00 23 1013.7
20260901062536 72 284 6.0 11.0 0.00 0.00 0.00 23 1013.7
20260901062036 73 304 4.0 9.0 0.00 0.00 0.00 23 1013.7
20260901061543 73 266 2.0 9.0 0.00 0.00 0.00 23 1013.7
20260901061036 73 284 3.0 9.0 0.00 0.00 0.00 23 1013.8
20260901060538 73 282 2.0 11.0 0.00 0.00 0.00 23 1013.7
20260901060037 73 201 2.0 11.0 0.00 0.00 0.00 23 1013.9
20260901055536 73 257 5.0 10.0 0.00 0.00 0.00 23 1013.9
20260901055036 73 267 4.0 11.0 0.00 0.00 0.00 23 1013.9
20260901054541 73 229 6.0 14.0 0.00 0.00 0.00 23 1013.9
20260901054036 73 270 6.0 13.0 0.00 0.00 0.00 23 1013.9
20260901053535 74 236 5.0 14.0 0.00 0.00 0.00 23 1013.9
20260901053038 74 240 5.0 14.0 0.00 0.00 0.00 23 1013.9
20260901052533 74 250 3.0 12.0 0.00 0.00 0.00 23 1013.8
20260901052033 74 237 1.0 12.0 0.00 0.00 0.00 23 1013.8
20260901051533 74 304 1.0 10.0 0.00 0.00 0.00 22 1013.7
20260901051033 74 323 4.0 10.0 0.00 0.00 0.00 22 1013.7
20260901050534 74 340 3.0 9.0 0.00 0.00 0.00 22 1013.6
20260901050034 74 254 2.0 9.0 0.00 0.00 0.00 22 1013.7
20260901045537 75 267 1.0 10.0 0.00 0.00 0.00 22 1013.7
20260901045032 75 277 4.0 12.0 0.00 0.00 0.00 22 1013.6
20260901044534 75 360 2.0 9.0 0.00 0.00 0.00 22 1013.6
20260901044032 75 256 1.0 8.0 0.00 0.00 0.00 22 1013.6
20260901043533 75 287 3.0 17.0 0.00 0.00 0.00 22 1013.5
20260901043034 75 200 7.0 17.0 0.00 0.00 0.00 21 1013.4
20260901042532 75 257 7.0 14.0 0.00 0.00 0.00 21 1013.3
20260901042032 76 275 7.0 14.0 0.00 0.00 0.00 21 1013.3
20260901041535 76 215 7.0 16.0 0.00 0.00 0.00 21 1013.1
20260901041031 76 271 7.0 16.0 0.00 0.00 0.00 21 1013.1
20260901040531 76 262 8.0 20.0 0.00 0.00 0.00 21 1013.0
20260901040037 76 267 7.0 20.0 0.00 0.00 0.00 21 1013.0
20260901035630 76 271 9.0 16.0 0.00 0.00 0.00 21 1013.1
20260901035030 77 239 8.0 16.0 0.00 0.00 0.00 21 1013.0
20260901034530 77 229 5.0 16.0 0.00 0.00 0.00 21 1013.0
20260901034029 77 263 8.0 16.0 0.00 0.00 0.00 21 1012.8
20260901033529 77 251 8.0 16.0 0.00 0.00 0.00 21 1012.8
20260901033030 77 242 8.0 16.0 0.00 0.00 0.00 21 1012.8
20260901032530 77 284 6.0 12.0 0.00 0.00 0.00 21 1012.7
20260901032028 77 244 8.0 17.0 0.00 0.00 0.00 21 1012.7
20260901031529 77 292 10.0 18.0 0.00 0.00 0.00 21 1012.7
20260901031029 78 258 9.0 16.0 0.00 0.00 0.00 21 1012.7
20260901030528 78 222 8.0 18.0 0.00 0.00 0.00 20 1012.7
20260901030032 78 229 9.0 17.0 0.00 0.00 0.00 20 1012.7
20260901025528 78 264 5.0 16.0 0.00 0.00 0.00 20 1012.7
20260901025028 79 213 5.0 16.0 0.00 0.00 0.00 20 1012.8
20260901024532 79 276 6.0 16.0 0.00 0.00 0.00 20 1012.7
20260901024030 79 234 9.0 23.0 0.00 0.00 0.00 20 1012.6
20260901023526 80 281 11.0 21.0 0.00 0.00 0.00 19 1012.6
20260901023028 80 286 7.0 18.0 0.00 0.00 0.00 18 1012.6
20260901022528 81 248 6.0 14.0 0.00 0.00 0.00 17 1012.5
20260901022026 81 267 7.0 14.0 0.00 0.00 0.00 16 1012.4
20260901021529 81 262 8.0 19.0 0.00 0.00 0.00 16 1012.3
20260901021026 82 290 10.0 19.0 0.00 0.00 0.00 16 1012.3
20260901020526 82 275 9.0 18.0 0.00 0.00 0.00 16 1012.1
20260901020034 82 298 8.0 20.0 0.00 0.00 0.00 16 1012.1
20260901015526 83 279 10.0 20.0 0.00 0.00 0.00 16 1012.0
20260901015025 83 281 8.0 20.0 0.00 0.00 0.00 16 1012.0
20260901014525 84 278 9.0 18.0 0.00 0.00 0.00 15 1012.0
20260901014025 84 342 6.0 16.0 0.00 0.00 0.00 15 1011.9
20260901013525 84 272 9.0 19.0 0.00 0.00 0.00 15 1011.9
20260901013025 85 284 7.0 17.0 0.00 0.00 0.00 15 1011.8
20260901012528 85 285 9.0 17.0 0.00 0.00 0.00 14 1011.8
20260901012026 86 292 9.0 17.0 0.00 0.00 0.00 14 1011.8
20260901011528 86 332 7.0 18.0 0.00 0.00 0.00 14 1011.7
20260901011027 87 298 6.0 18.0 0.00 0.00 0.00 13 1011.7
20260901010525 88 313 5.0 12.0 0.00 0.00 0.00 12 1011.5
20260901010024 88 341 3.0 13.0 0.00 0.00 0.00 12 1011.6
20260901005524 87 192 6.0 13.0 0.00 0.00 0.00 12 1011.6